Date String (YYYY-MM-DD hh:mm:ss) UTC,Instrument flags,Ambient pressure (hPa),Sample flow (lpm),Bypass flow (lpm),Sample temperature (°C),Ambient temperature (°C),ASC tube jacket temperature (°C),LED temperature (°C),Box temperature (°C),Sample RH (%),Span deviation,Mass concentration (μg/m³),Mass concentration (μg/m³),Mass concentration (μg/m³)
DateTimeUTC,F1_M11,P_M11,Q1_M11,Q2_M11,T1_M11,T2_M11,T3_M11,T4_M11,T5_M11,U1_M11,ZSPAN_M11,X0_M11,X2_M11,X1_M11
2021-12-22 22:00:00,,0819.9,4.99,0.00,27.5,26.7,00.0,36.4,29.2,03.8,0000.0,0001.26,0000.42,0000.28
2021-12-22 22:01:00,,0819.9,5.01,0.00,27.5,26.7,00.0,36.4,29.2,03.8,0000.0,0001.22,0000.42,0000.27
2021-12-22 22:02:00,,0819.9,4.99,0.00,27.5,26.6,00.0,36.4,29.2,03.6,0000.0,0001.23,0000.42,0000.27
2021-12-22 22:03:00,,0819.9,5.01,0.00,27.5,26.6,00.0,36.4,29.3,03.6,0000.0,0001.24,0000.43,0000.27
2021-12-22 22:04:00,,0819.9,4.99,0.00,27.5,26.7,00.0,36.4,29.2,04.0,0000.0,0001.15,0000.42,0000.27
2021-12-22 22:05:00,,0819.9,5.01,0.00,27.5,26.7,00.0,36.4,29.2,04.0,0000.0,0001.03,0000.40,0000.26
2021-12-22 22:06:00,,0820.0,5.00,0.00,27.5,26.7,00.0,36.5,29.3,03.9,0000.0,0001.07,0000.43,0000.26
2021-12-22 22:07:00,,0820.0,5.02,0.00,27.6,26.6,00.0,36.5,29.3,03.8,0000.0,0000.88,0000.42,0000.26
2021-12-22 22:08:00,,0820.0,4.99,0.00,27.6,26.7,00.0,36.5,29.3,03.9,0000.0,0000.54,0000.35,0000.25
2021-12-22 22:09:00,,0820.0,5.01,0.00,27.6,26.7,00.0,36.5,29.3,03.8,0000.0,0000.53,0000.35,0000.25
2021-12-22 22:10:00,,0820.2,5.00,0.00,27.6,26.7,00.0,36.5,29.3,03.9,0000.0,0000.52,0000.34,0000.25
2021-12-22 22:11:00,,0820.2,5.00,0.00,27.6,26.7,00.0,36.5,29.3,03.9,0000.0,0000.51,0000.34,0000.25
2021-12-22 22:12:00,,0820.2,5.00,0.00,27.6,26.7,00.0,36.5,29.3,04.3,0000.0,0000.49,0000.34,0000.25
2021-12-22 22:13:00,,0820.0,4.98,0.00,27.6,26.7,00.0,36.5,29.3,04.4,0000.0,0000.49,0000.33,0000.25
2021-12-22 22:14:00,,0820.0,5.02,0.00,27.6,26.7,00.0,36.5,29.3,04.2,0000.0,0000.49,0000.33,0000.24
2021-12-22 22:15:00,,0820.0,4.99,0.00,27.6,26.7,00.0,36.5,29.4,04.2,0000.0,0000.50,0000.33,0000.23
2021-12-22 22:16:00,,0820.1,5.00,0.00,27.7,26.8,00.0,36.5,29.4,04.2,0000.0,0000.50,0000.32,0000.23
2021-12-22 22:17:00,,0820.0,5.01,0.00,27.7,26.8,00.0,36.6,29.4,04.4,0000.0,0000.42,0000.29,0000.23
2021-12-22 22:18:00,,0819.9,5.00,0.00,27.7,26.8,00.0,36.6,29.4,04.2,0000.0,0000.35,0000.26,0000.22
2021-12-22 22:19:00,,0820.0,5.01,0.00,27.7,26.8,00.0,36.6,29.4,04.2,0000.0,0000.34,0000.26,0000.22
2021-12-22 22:20:00,,0819.9,4.99,0.00,27.7,26.9,00.0,36.6,29.5,04.2,0000.0,0000.35,0000.26,0000.22
2021-12-22 22:21:00,,0819.9,5.00,0.00,27.7,26.9,00.0,36.6,29.5,04.0,0000.0,0000.35,0000.26,0000.22
2021-12-22 22:22:00,,0819.9,4.99,0.00,27.7,26.9,00.0,36.6,29.5,03.9,0000.0,0000.37,0000.26,0000.22
2021-12-22 22:23:00,,0819.9,5.00,0.00,27.7,26.9,00.0,36.6,29.5,04.0,0000.0,0000.36,0000.27,0000.23
2021-12-22 22:24:00,,0820.0,5.01,0.00,27.7,26.9,00.0,36.6,29.5,04.0,0000.0,0000.35,0000.27,0000.23
2021-12-22 22:25:00,,0820.1,4.99,0.00,27.8,26.9,00.0,36.6,29.5,04.0,0000.0,0000.48,0000.29,0000.24
2021-12-22 22:26:00,,0820.1,5.01,0.00,27.8,27.0,00.0,36.6,29.5,03.8,0000.0,0000.55,0000.31,0000.25
2021-12-22 22:27:00,,0819.9,4.98,0.00,27.8,27.0,00.0,36.7,29.6,03.6,0000.0,0000.70,0000.33,0000.25
2021-12-22 22:28:00,,0820.0,5.02,0.00,27.8,27.0,00.0,36.7,29.5,04.4,0000.0,0000.86,0000.35,0000.26
2021-12-22 22:29:00,,0820.0,4.99,0.00,27.8,27.0,00.0,36.7,29.5,04.3,0000.0,0000.86,0000.35,0000.26
2021-12-22 22:30:00,,0820.1,5.01,0.00,27.8,27.0,00.0,36.7,29.6,04.2,0000.0,0000.87,0000.35,0000.26
2021-12-22 22:31:00,,0820.2,4.98,0.00,27.8,27.1,00.0,36.7,29.6,04.1,0000.0,0000.87,0000.35,0000.27
2021-12-22 22:32:00,,0820.2,5.01,0.00,27.9,27.1,00.0,36.7,29.6,04.0,0000.0,0001.10,0000.36,0000.27
2021-12-22 22:33:00,,0820.2,5.00,0.00,27.9,27.1,00.0,36.7,29.7,03.9,0000.0,0001.45,0000.36,0000.27
2021-12-22 22:34:00,,0820.2,5.01,0.00,27.9,27.1,00.0,36.7,29.7,04.3,0000.0,0001.46,0000.36,0000.27
2021-12-22 22:35:00,,0820.2,4.99,0.00,27.9,27.1,00.0,36.8,29.6,04.1,0000.0,0001.44,0000.36,0000.27
2021-12-22 22:36:00,,0820.3,5.01,0.00,27.9,27.1,00.0,36.8,29.6,04.0,0000.0,0001.32,0000.33,0000.27
2021-12-22 22:37:00,,0820.2,5.01,0.00,27.9,27.1,00.0,36.8,29.6,03.9,0000.0,0001.24,0000.32,0000.26
2021-12-22 22:38:00,,0820.2,5.00,0.00,27.9,27.1,00.0,36.8,29.6,03.8,0000.0,0001.06,0000.29,0000.26
2021-12-22 22:39:00,,0820.3,4.99,0.00,27.9,27.1,00.0,36.8,29.7,03.7,0000.0,0000.92,0000.28,0000.26
2021-12-22 22:40:00,,0820.2,4.99,0.00,27.9,27.1,00.0,36.8,29.6,03.7,0000.0,0000.92,0000.29,0000.27
2021-12-22 22:41:00,,0820.2,5.01,0.00,27.9,27.1,00.0,36.8,29.6,03.7,0000.0,0000.95,0000.30,0000.27
2021-12-22 22:42:00,,0819.9,5.00,0.00,27.9,27.1,00.0,36.8,29.6,03.8,0000.0,0000.99,0000.32,0000.28
2021-12-22 22:43:00,,0820.0,4.98,0.00,27.9,27.1,00.0,36.8,29.7,03.9,0000.0,0000.74,0000.31,0000.27
2021-12-22 22:44:00,,0820.2,5.00,0.00,27.9,27.1,00.0,36.8,29.6,03.9,0000.0,0000.39,0000.30,0000.27
2021-12-22 22:45:00,,0820.2,5.01,0.00,27.9,27.1,00.0,36.8,29.7,03.8,0000.0,0000.41,0000.31,0000.27
2021-12-22 22:46:00,,0820.1,5.00,0.00,28.0,27.2,00.0,36.8,29.7,03.8,0000.0,0000.60,0000.33,0000.28
2021-12-22 22:47:00,,0820.0,5.00,0.00,28.0,27.2,00.0,36.8,29.7,03.8,0000.0,0000.77,0000.36,0000.28
2021-12-22 22:48:00,,0820.1,5.01,0.00,28.0,27.2,00.0,36.9,29.7,03.7,0000.0,0000.81,0000.38,0000.29
2021-12-22 22:49:00,,0820.2,4.98,0.00,28.0,27.2,00.0,36.9,29.7,03.8,0000.0,0000.91,0000.40,0000.30
2021-12-22 22:50:00,,0820.0,5.00,0.00,28.0,27.1,00.0,36.9,29.7,03.7,0000.0,0000.96,0000.42,0000.30
2021-12-22 22:51:00,,0819.9,5.00,0.00,28.0,27.1,00.0,36.9,29.7,03.7,0000.0,0002.02,0000.42,0000.30
2021-12-22 22:52:00,,0820.1,4.99,0.00,28.0,27.1,00.0,36.9,29.8,03.6,0000.0,0002.77,0000.41,0000.30
2021-12-22 22:53:00,,0820.2,5.01,0.00,28.1,27.2,00.0,36.9,29.8,03.5,0000.0,0002.90,0000.42,0000.31
2021-12-22 22:54:00,,0820.2,4.98,0.00,28.1,27.2,00.0,36.9,29.8,03.5,0000.0,0003.24,0000.46,0000.32
2021-12-22 22:55:00,,0820.1,5.01,0.00,28.1,27.2,00.0,36.9,29.8,03.5,0000.0,0003.28,0000.49,0000.33
2021-12-22 22:56:00,,0820.1,5.00,0.00,28.1,27.1,00.0,36.9,29.8,03.6,0000.0,0003.26,0000.49,0000.34
2021-12-22 22:57:00,,0820.2,5.01,0.00,28.1,27.2,00.0,36.9,29.8,03.6,0000.0,0003.07,0000.48,0000.34
2021-12-22 22:58:00,,0820.2,4.99,0.00,28.1,27.2,00.0,37.0,29.9,03.6,0000.0,0002.99,0000.48,0000.34
2021-12-22 22:59:00,,0820.1,5.00,0.00,28.1,27.2,00.0,37.0,29.8,03.6,0000.0,0002.95,0000.46,0000.33
